Regional Weather Roundup
Issued by NWS Upton, NY

Current Version | Previous Version | Text Only | Print | Product List | Glossary Off
Versions: 1 2 3 4 5 6 7 8 9 10 11 12 13 14 15 16 17 18 19 20 21 22 23 24 25 26 27 28 29 30 31 32 33 34 35 36 37 38 39 40 41 42 43 44 45 46 47 48 49 50
000 ASUS41 KOKX 272305 RWROKX REGIONAL WEATHER ROUNDUP NATIONAL WEATHER SERVICE NEW YORK NY 600 PM EST SAT DEC 27 2014 NOTE: "FAIR" INDICATES FEW OR NO CLOUDS BELOW 12,000 FEET WITH NO SIGNIFICANT WEATHER AND/OR OBSTRUCTIONS TO VISIBILITY. NYZ071-072-176-178-NJZ106-104-280000- NEW YORK CITY METRO AREA CITY SKY/WX TMP DP RH WIND PRES REMARKS CENTRAL PARK CLEAR 50 33 52 VRB3 30.19R LAGUARDIA APRT MOCLDY 48 33 56 S8 30.17R KENNEDY INTL MOCLDY 45 34 65 SE6 30.18S NEWARK/LIBERTY MOCLDY 49 34 56 S6 30.17R BRNX BOT. GARD N/A 46 34 61 CALM 30.18S TETERBORO CLEAR 45 34 65 S5 30.15S $$ NYZ177-179-078>081-280000- LONG ISLAND NEW YORK CITY SKY/WX TMP DP RH WIND PRES REMARKS FARMINGDALE PTCLDY 44 38 79 SW5 30.18S ISLIP MOCLDY 44 37 76 SW5 30.17S SHIRLEY CLEAR 39 30 70 CALM 30.19F WESTHAMPTON PTCLDY 34 27 75 CALM 30.20S MONTAUK POINT N/A 45 38 76 S3 30.19F $$ NYZ052-065-067-280000- HUDSON VALLEY CITY SKY/WX TMP DP RH WIND PRES REMARKS WHITE PLAINS CLEAR 46 34 62 S5 30.15S NEWBURGH CLEAR 41 34 75 CALM 30.15S MONTGOMERY CLEAR 39 33 79 CALM 30.12S POUGHKEEPSIE CLEAR 41 33 73 CALM 30.14R ALBANY MOCLDY 44 32 62 S7 30.09S $$ NJZ001-105-106-008-010-013-015-019>022-104-280000- NEW JERSEY CITY SKY/WX TMP DP RH WIND PRES REMARKS NEWARK/LIBERTY MOCLDY 49 34 56 S6 30.17R TETERBORO CLEAR 45 34 65 S5 30.15S CALDWELL CLEAR 46 33 60 CALM 30.16S MORRISTOWN CLEAR 45 34 65 CALM 30.16S SOMERVILLE PTCLDY 43 33 68 CALM 30.14S SUSSEX CLEAR 41 34 76 CALM 30.14S ANDOVER NOT AVBL TRENTON PTCLDY 49 30 48 CALM 30.16S MILLVILLE CLEAR 43 35 73 CALM 30.20R ATLANTIC CITY CLEAR 45 39 79 S7 30.20R WRIGHTSTOWN CLEAR 41 33 74 S2 30.16R TOMS RIVER PTCLDY 39 34 81 CALM 30.19R BELMAR PTCLDY 46 34 61 SE6 30.18R $$ PAZ047>061-062-071-280000- EASTERN PENNSYLVANIA CITY SKY/WX TMP DP RH WIND PRES REMARKS PHILADELPHIA MOCLDY 50 30 46 S5 30.19R ALLENTOWN PTCLDY 49 34 56 CALM 30.16R SCRANTON MOCLDY 45 33 63 CALM 30.11F $$ CTZ002-004>006-009-010-012-RIZ004-006-007-MAZ004-011-015-280000- SOUTHERN NEW ENGLAND IN CT CITY SKY/WX TMP DP RH WIND PRES REMARKS BRADLEY INTL MOCLDY 45 32 60 SW5 30.13S HARTFORD PTCLDY 46 32 58 S6 30.14F DANBURY CLEAR 38 31 76 SW3 30.16S WTRBRY/OXFORD MOCLDY 45 30 57 CALM 30.15S BRIDGEPORT CLEAR 46 37 71 SW5 30.16F MERIDEN PTCLDY 41 31 67 S5 30.15F NEW HAVEN PTCLDY 41 33 73 CALM 30.16F CHESTER FAIR 45 32 61 SW5 30.16F GROTON PTCLDY 41 37 86 W5 30.17F WILLIMANTIC MOCLDY 41 32 70 CALM 30.15S IN RI CITY SKY/WX TMP DP RH WIND PRES REMARKS PROVIDENCE MOCLDY 45 34 65 SW8 30.16R BLOCK ISLAND CLEAR 45 37 76 SW9 30.17F WESTERLY PTCLDY 44 37 76 SW3 30.17F IN MA CITY SKY/WX TMP DP RH WIND PRES REMARKS BOSTON PTCLDY 47 34 60 SW10 30.14R WORCESTER CLEAR 38 31 76 SW7 30.11F WCI 33 WESTFIELD PTCLDY 40 32 73 S3 30.12F PROVINCETOWN CLEAR 45 37 76 SW8 30.15S NANTUCKET CLEAR 44 40 85 SW10 30.17R $$ ANZ330-335-338-340-345-350-353-355-280000- COASTAL MARINE OBSERVATIONS STATION/POSITION TIME SKY/WX TEMP WIND PRES VSBY WAVE AIR SEA DIR/SP/G HT/PER (UTC) (F) (DEG/KT/KT) (MB) (MI) (FT/S) NY HARB ENTRANCE 2300 47 45 220/ 8/ 10 1022.4 3/14 4S FIRE IS 2300 47 N/A 3/15 20S FIRE ISLAND 2200 49 49 1022.7 4/15 23SW MTP 2300 N/A 3/15 HUDSON CANYON 2300 52 55 210/ 12/ 14 1022.2 3/13 EXECUTION ROCKS 2300 47 42 200/ 8/ 10 N/A WESTERN LI SOUND 2300 47 180/ 6/ 8 N/A 0 CENTRAL LI SOUND 2200 44 44 180/ 6/ 8 N/A 1 EASTERN LI SOUND NOT AVBL ROBBINS REEF 2300 46 1020.2 $$ >>>>>>>>>>>>>>>>>>>>>>>>>>>> KEY <<<<<<<<<<<<<<<<<<<<<<<<<<< > < > SKY/WX - SKY CONDITION/PRESENT WEATHER < > TMP - TEMPERATURE IN FAHRENHEIT < > DP - DEWPOINT IN FAHRENHEIT < > RH - RELATIVE HUMIDITY IN PERCENT < > WIND - DIRECTION AND SPEED IN MPH < > PRES - MEAN SEA LEVEL PRESSURE IN INCHES OF HG < > WCI - WIND CHILL INDEX < > VSB - VISIBILITY IN MILES < > HX - HEAT INDEX < > TC - TEMPERATURE IN CELSIUS < > VRB - VARIABLE WIND DIRECTION < > < >>>>>>>>>>>>>>>>>>>>>>>>>>>> KEY <<<<<<<<<<<<<<<<<<<<<<<<<<<

USA.gov is the U.S. government's official web portal to all federal, state and local government web resources and services.